Weather at Guernsey Airport

Public forecast

Using degrees Celsius for public forecast. Weather courtesy of forecast.io.

Current aviation weather report (METAR) for Guernsey Airport

Retrieved 2021/10/16 03:20 UTC (0 seconds ago):

EGJB 160320Z 03001KT 9999 MIFG FEW008 12/12 Q1021

Closest aviation forecast (TAF) to Guernsey Airport

Forecast is more than 12 hours old.

Closest forecast is Lannion-Côte de Granit Airport, 53.3 nm (98.7 km) SW. Retrieved 2019/05/15 19:06 UTC (2 years ago):

TAF LFRO 151936Z 1519/1612 CNL